Location: Plymouth
(43.7570°N, 71.6890°W)
Time: 09:21:22
(UTC-05:00)

Daily predictions for brighter satellites

Satellite Brightness Start Highest point End
(mag) Time Altitude Azimuth Time Altitude Azimuth Time Altitude Azimuth
Cosmos 1125 Rocket 4.4 16:33:29 10° SW 16:38:39 52° WNW 16:43:52 10° NNE
SJ-12 4.3 16:38:46 10° SE 16:42:38 42° ENE 16:46:32 10° N
CSL-04 Rocket 4.2 16:38:21 10° S 16:43:47 69° WSW 16:49:20 10° NNW
SL-8 Rocket 4.0 16:37:51 10° N 16:44:00 68° E 16:50:07 10° SSE
Cosmos 1455 Rocket 3.5 16:40:12 10° N 16:44:24 41° ENE 16:48:36 10° SSE
Tiangong 1 3.1 16:43:02 10° SSW 16:45:10 18° SSE 16:47:19 10° ESE
IDEFIX/ARIANE 42P 2.7 16:44:26 10° SE 16:49:27 51° ENE 16:54:28 10° N
CZ-3B DEB 2.1 16:51:08 10° SW 16:54:31 67° SE 17:03:06 10° NE
AQUARIUS 4.3 16:51:18 10° SSE 16:55:41 55° ENE 17:00:06 10° N
Cosmos 2366 rocket 4.1 16:50:04 10° N 16:56:23 63° E 17:02:36 10° SSE
Cosmos 1844 Rocket 2.9 16:51:58 10° SSW 16:57:34 75° WNW 17:03:13 10° NNE
Cosmos 1959 Rocket 4.5 16:51:45 10° N 16:57:57 73° E 17:04:11 10° SSE
Thor Agena Rocket 3.7 16:53:24 10° NNE 16:58:32 55° ESE 17:03:41 10° S
Cosmos 2218 Rocket 4.0 16:57:32 10° N 17:03:53 80° E 17:10:04 10° S
Cosmos 2251 Rocket 3.7 17:00:18 10° NNW 17:05:42 84° WSW 17:11:00 10° SSE
Cosmos 1812 2.7 17:02:59 10° S 17:06:48 62° E 17:10:37 10° NNE
SL-27 R/B 3.8 17:06:31 10° NNW 17:10:03 45° WSW 17:13:31 10° S
CORIOLIS 4.1 17:04:45 10° SSE 17:10:07 70° ENE 17:15:29 10° N
Meteor 1-18 Rocket 4.2 17:12:30 10° S 17:18:08 81° E 17:23:56 10° NNE
Okean 1 3.3 17:14:58 10° S 17:18:57 62° E 17:22:59 10° NNE
Intercosmos 25 3.9 17:17:39 10° NNE 17:20:23 24° ENE 17:23:06 10° SE
Cosmos 1844 4.0 17:15:20 10° SW 17:20:50 65° WNW 17:26:24 10° NNE
Abrixas 2.6 17:18:53 10° WNW 17:21:48 53° NNE 17:23:15 25° E
Timation 2 Rocket 4.3 17:16:24 10° NNW 17:23:07 56° ENE 17:29:52 10° SE
Cosmos 2297 4.1 17:19:01 10° S 17:24:13 41° ESE 17:28:23 16° NE
Cosmos 1346 Rocket 2.8 17:26:07 10° S 17:29:54 54° E 17:33:15 13° NNE
Cosmos 1821 Rocket 4.4 17:24:52 10° N 17:30:27 36° ENE 17:36:00 10° SE
ISS -1.8 17:31:00 10° WNW 17:33:51 26° NNW 17:35:07 20° NNE
Cosmos 2278 Rocket 2.3 17:30:25 10° SSW 17:36:04 80° WNW 17:41:46 10° NNE
COSMO-SKYMED 1 2.8 17:33:21 14° NNE 17:36:54 47° E 17:41:05 10° S
SMAP 3.9 17:35:05 10° S 17:39:37 53° W 17:44:12 10° NNW
USA 234 3.4 17:34:55 16° NE 17:40:15 73° NW 17:46:45 10° WSW
SL-24 DEB 4.2 17:36:29 10° N 17:41:15 84° E 17:45:56 10° S
Meteor 2-14 Rocket 4.4 17:36:57 10° N 17:43:02 59° ENE 17:49:04 10° SSE
BREEZE M DEB (TANK) 3.2 17:45:21 10° WNW 17:48:40 57° NNE 17:53:28 23° E
SL-8 R/B 3.7 17:45:38 10° WSW 17:50:25 74° NNW 17:52:28 34° ENE
Genesis I 4.0 17:47:14 10° NW 17:51:06 53° WSW 17:54:52 10° SSE
METEOR-M 4.5 17:46:40 10° SE 17:51:35 40° ENE 17:56:32 10° N
Cosmos 2056 Rocket 4.4 17:47:38 10° SSE 17:52:11 29° E 17:52:16 29° E
NOSS 3-4 (A) 4.0 17:46:18 10° NNW 17:53:01 49° NE 17:57:34 22° ESE
NOSS 3-4 (C) 4.0 17:46:25 10° NNW 17:53:07 48° NE 17:57:36 22° ESE
SL-24 R/B - RUBIN 2 4.5 17:49:20 10° SSW 17:55:41 84° ESE 18:00:15 22° NE
Nadezhda 3 Rocket 3.9 17:50:31 10° S 17:56:43 81° E 18:03:01 10° N
Cosmos 1833 Rocket 2.6 17:51:59 10° NNW 17:57:39 71° ENE 18:03:15 10° SSE
Cosmos 1025 Rocket 3.3 17:55:14 10° SSE 17:59:22 43° E 17:59:27 43° E
Cosmos 2082 Rocket 2.1 17:54:40 10° NNW 18:00:22 86° ENE 18:06:04 10° SSE
NOSS 3-3 (A) 4.3 17:54:30 10° SW 18:00:41 65° NW 18:05:35 19° NNE
NOSS 3-3 (C) 4.3 17:54:36 10° SW 18:00:47 66° NW 18:05:40 19° NNE
Meteor 1-19 Rocket 4.2 17:55:23 10° S 18:01:07 66° E 18:06:47 11° NNE
Cosmos 921 Rocket 2.8 17:57:45 10° S 18:01:59 73° ESE 18:03:30 39° NNE
Meteor 2-21 Rocket 4.4 17:58:06 10° N 18:04:19 87° W 18:10:29 10° S
Cosmos 1975 4.5 18:01:14 10° NNW 18:04:58 36° W 18:08:40 10° SSW
CZ-4 R/B 4.3 18:02:02 10° SW 18:05:08 20° W 18:08:13 10° NW
Cosmos 1624 Rocket 4.4 18:00:43 10° S 18:05:30 39° ESE 18:05:37 39° E
Cosmos 1743 2.6 18:01:38 10° N 18:05:32 89° ENE 18:09:23 10° S
Meteor 2-16 Rocket 4.3 18:00:50 10° N 18:06:57 81° E 18:13:03 10° S
GEOS 3 Rocket 3.4 18:06:32 26° SE 18:09:26 71° NE 18:14:33 10° NNW
COSMOS 2487 4.0 18:06:27 10° NW 18:09:48 38° WSW 18:13:08 10° S
Cosmos 1371 Rocket 4.1 18:05:17 10° S 18:10:30 55° ESE 18:11:45 44° ENE
Meteor 1-15 Rocket 4.5 18:04:58 10° N 18:10:40 47° ENE 18:16:15 10° SSE
Cosmos 1484 Rocket 3.6 18:08:12 10° S 18:11:50 49° W 18:15:28 10° NNW
Meteor 1-28 Rocket 3.2 18:15:53 66° SSE 18:15:53 66° SSE 18:19:14 10° S
Tiangong 1 2.6 18:18:02 10° WSW 18:19:54 32° SW 18:19:54 32° SW
Meteor 1-13 Rocket 4.5 18:15:20 10° SSW 18:21:00 71° WNW 18:26:50 10° N
SKYMED 2 4.3 18:21:58 18° N 18:24:59 52° WNW 18:29:12 10° SSW
Meteor 1-23 Rocket 4.1 18:22:08 10° S 18:27:47 69° E 18:29:13 49° NNE
FALCON 9 R/B 3.7 18:11:02 10° WSW 18:32:15 50° S 18:35:31 32° SE
BREEZE-M R/B 3.8 18:24:49 10° WSW 18:33:52 64° NNW 18:34:44 55° NNE
Meteor 2-4 Rocket 3.5 18:31:55 10° S 18:37:18 86° W 18:38:55 47° N
Meteor 2-9 Rocket 4.0 18:31:58 10° N 18:37:27 86° W 18:42:47 10° S
Cosmos 1190 Rocket 4.3 18:37:43 10° NNW 18:41:50 55° N 18:41:50 55° N
Cosmos 1934 Rocket 4.1 18:40:47 10° NNW 18:46:58 75° W 18:53:14 10° S
BREEZE M DEB (TANK) 4.4 19:05:43 10° WSW 19:08:45 27° W 19:08:45 27° W
USA 234 4.3 19:22:16 34° N 19:22:39 34° NNW 19:28:24 10° WNW
CZ-3B DEB 4.0 19:24:17 10° WNW 19:30:20 45° N 19:31:37 44° NNE
